This demonstration page uses our WeatherBlox Daily Observations layout. Learn more.

Left ArrowRight Arrow

41.86663, -103.66717

Hourly Observations for December 1, 2022

Temp ( °F °C ) Dew Point ( °F °C ) Humidity (%) Winds ( mph kmh ) Pressure ( in mb ) Visibility ( mi km ) Precip ( " mm )
12:53 am 00:53 Clear 18 -7.8 12 -11.1 77 77 E 5 7 29.96 1015 10 16 0.00 0.00
1:53 am 01:53 Clear 10 -12.2 5 -15 80 80 Calm 29.98 1015 10 16 0.00 0.00
2:53 am 02:53 Clear 10 -12.2 6 -14.4 84 84 NW 5 7 29.96 1014 10 16 0.00 0.00
3:53 am 03:53 Clear 10 -12.2 5 -15 80 80 NNE 7 11 29.95 1014 10 16 0.00 0.00
4:53 am 04:53 Clear 11 -11.7 6 -14.4 80 80 NE 8 13 29.94 1014 10 16 0.00 0.00
5:53 am 05:53 Clear 9 -12.8 5 -15 83 83 Calm 29.96 1015 10 16 0.00 0.00
6:53 am 06:53 Clear 9 -12.8 4 -15.6 79 79 WNW 3 6 29.96 1015 10 16 0.00 0.00
7:53 am 07:53 Sunny 10 -12.2 5 -15 80 80 Calm 29.96 1015 10 16 0.00 0.00
8:53 am 08:53 Sunny 16 -8.9 11 -11.7 80 80 Calm 29.93 1014 10 16 0.00 0.00
9:53 am 09:53 Sunny 21 -6.1 14 -10 74 74 Calm 29.92 1013 10 16 0.00 0.00
10:53 am 10:53 Sunny 23 -5 15 -9.4 71 71 Calm 29.91 1013 10 16 0.00 0.00
11:53 am 11:53 Sunny 24 -4.4 16 -8.9 71 71 ESE 8 13 29.88 1012 10 16 0.00 0.00
12:53 pm 12:53 Sunny 27 -2.8 18 -7.8 68 68 SE 5 7 29.83 1010 9 14 0.00 0.00
1:53 pm 13:53 Sunny 30 -1.1 19 -7.2 63 63 Calm 29.82 1010 10 16 0.00 0.00
2:53 pm 14:53 Sunny 29 -1.7 20 -6.7 69 69 Calm 29.80 1009 10 16 0.00 0.00
3:53 pm 15:53 Sunny 29 -1.7 20 -6.7 69 69 Calm 29.80 1009 10 16 0.00 0.00
4:53 pm 16:53 Clear 22 -5.6 16 -8.9 77 77 ESE 3 6 29.81 1010 10 16 0.00 0.00
6:53 pm 18:53 Clear 19 -7.2 14 -10 80 80 Calm 29.79 1009 10 16 0.00 0.00
7:53 pm 19:53 Clear 18 -7.8 13 -10.6 80 80 Calm 29.78 1008 10 16 0.00 0.00
8:53 pm 20:53 Clear 18 -7.8 14 -10 84 84 Calm 29.75 1008 9 14 0.00 0.00
9:53 pm 21:53 Clear 18 -7.8 14 -10 84 84 Calm 29.72 1007 7 11 0.00 0.00
10:53 pm 22:53 Clear 18 -7.8 14 -10 84 84 NW 6 9 29.71 1006 8 13 0.00 0.00
11:53 pm 23:53 Clear 16 -8.9 11 -11.7 80 80 N 6 9 29.69 1006 8 13 0.00 0.00

Powered by AerisWeather